[[[{"header":{"parameterUnit":"kt","parameterCategory":2,"dx":1,"dy":1,"la1":30.253999710083008,"la2":30.299108505249023,"lo1":-89.0895004272461,"lo2":-89.04439544677734,"nx":28,"ny":28,"refTime":"2022-10-02T21:00:00:Z","depth":0,"parameterNumber":1,"parameterNumberName":"U-component_of_WINDS"},"data":[-0.6849,-0.6898,-0.6893,-0.6947,-0.6951,-0.6987,-0.6998,-0.7011,-0.7021,-0.7062,-0.7085,-0.7084,-0.7091,-0.7116,-0.7141,-0.714,-0.7151,-0.7173,-0.7168,-0.7077,-0.7064,-0.7051,-0.704,-0.7175,-0.7175,-0.7265,-0.7266,-0.7267,-0.6782,-0.6787,-0.6814,-0.6836,-0.6859,-0.6835,-0.685,-0.6871,-0.6904,-0.6915,-0.6937,-0.6973,-0.7,-0.7,-0.7025,-0.7048,-0.7039,-0.7055,-0.7055,-0.7057,-0.6958,-0.6946,-0.7063,-0.7063,-0.7063,-0.7063,-0.7063,-0.7063,-0.666,-0.669,-0.67,-0.6729,-0.6739,-0.6753,-0.6781,-0.6779,-0.6805,-0.6831,-0.6818,-0.6855,-0.6865,-0.6893,-0.69,-0.6928,-0.6909,-0.6926,-0.6931,-0.6936,-0.6943,-0.6817,-0.6932,-0.6932,-0.6931,-0.6931,-0.6931,0,-0.657,-0.6564,-0.6588,-0.6612,-0.6633,-0.665,-0.6665,-0.6682,-0.6665,-0.6687,-0.6718,-0.6735,-0.6768,-0.6797,-0.6819,-0.6824,-0.6802,-0.6798,-0.6811,-0.6819,-0.6824,-0.6824,-0.6665,-0.6796,-0.6795,-0.6794,-0.6793,-0.6793,-0.6449,-0.6483,-0.6491,-0.6509,-0.6516,-0.6546,-0.6562,-0.6545,-0.6563,-0.6579,-0.6606,-0.6634,-0.6656,-0.6706,-0.6704,-0.6728,-0.6719,-0.6769,-0.6722,-0.6728,-0.6722,-0.6722,-0.6726,-0.678,-0.6782,-0.6783,-0.6784,0,-0.6381,-0.6372,-0.6423,-0.6427,-0.6429,-0.6466,-0.647,-0.6498,-0.6493,-0.6532,-0.654,-0.6532,-0.6563,-0.6552,-0.6585,-0.6578,-0.664,-0.6628,-0.6637,-0.6635,-0.6681,-0.6678,-0.6828,-0.6848,-0.6705,-0.6707,-0.6708,0,-0.6275,-0.6321,-0.6304,-0.6335,-0.6385,-0.6367,-0.6417,-0.6418,-0.6426,-0.6456,-0.6429,-0.6458,-0.6439,-0.6467,-0.6457,-0.6505,-0.6511,-0.6509,-0.6507,-0.6514,-0.6514,-0.6525,-0.652,-0.6497,-0.6496,-0.6495,-0.6495,0,-0.6173,-0.6216,-0.6265,-0.6274,-0.6283,-0.6306,-0.6311,-0.632,-0.6337,-0.6356,-0.6366,-0.6389,-0.6403,-0.6421,-0.6409,-0.6378,-0.6467,-0.6421,-0.6466,-0.6467,-0.6489,-0.6488,-0.6621,-0.6494,-0.6494,-0.6493,-0.6493,0,-0.6086,-0.6106,-0.6178,-0.6185,-0.6197,-0.6229,-0.6251,-0.6276,-0.6288,-0.6284,-0.6299,-0.628,-0.632,-0.6275,-0.6331,-0.6293,-0.6308,-0.631,-0.6313,-0.6318,-0.627,-0.635,-0.6476,-0.649,-0.632,-0.6318,-0.6317,0,-0.5973,-0.6042,-0.6028,-0.6096,-0.6127,-0.6095,-0.613,-0.6141,-0.6139,-0.6165,-0.6162,-0.6191,-0.6156,-0.6164,-0.6192,-0.6191,-0.6239,-0.6184,-0.6224,-0.6225,-0.6224,-0.6339,-0.6362,-0.6449,-0.6298,-0.63,-0.6302,0,-0.5884,-0.5894,-0.5908,-0.5917,-0.5929,-0.5954,-0.5994,-0.6019,-0.6038,-0.6052,-0.6086,-0.6126,-0.6102,-0.6115,-0.6102,-0.6132,-0.6206,-0.6102,-0.6102,-0.6124,-0.6287,-0.6309,-0.6324,-0.6191,-0.6193,-0.6195,-0.6287,0,-0.576,-0.5793,-0.5827,-0.5849,-0.5866,-0.5908,-0.5897,-0.5917,-0.5903,-0.59,-0.5949,-0.5955,-0.5981,-0.5994,-0.598,-0.6052,-0.6039,-0.6013,-0.5971,-0.6046,-0.6076,-0.6088,-0.5927,-0.5926,-0.5925,-0.5924,0,0,-0.5655,-0.5702,-0.5685,-0.5723,-0.5737,-0.5704,-0.575,-0.5759,-0.578,-0.5791,-0.5767,-0.5825,-0.5832,-0.5892,-0.5914,-0.5924,-0.5936,-0.5911,-0.601,-0.6019,-0.6028,-0.6061,-0.6074,-0.5922,-0.5921,-0.5921,-0.5921,0,-0.5608,-0.5614,-0.5659,-0.5668,-0.5682,-0.5676,-0.5687,-0.5694,-0.5695,-0.5741,-0.5714,-0.5742,-0.5789,-0.58,-0.5812,-0.5902,-0.5882,-0.5911,-0.5964,-0.5999,-0.601,-0.602,-0.6054,-0.6066,-0.5918,-0.5918,-0.5918,0,-0.552,-0.5525,-0.5546,-0.5575,-0.5584,-0.5616,-0.5569,-0.5605,-0.5629,-0.5591,-0.5639,-0.5641,-0.5654,-0.5712,-0.5737,-0.5717,-0.5832,-0.5793,-0.58,-0.5803,-0.5836,-0.585,-0.5862,-0.5706,-0.5705,-0.5704,0,0,-0.5481,-0.5512,-0.5512,-0.5565,-0.5572,-0.5564,-0.558,-0.5568,-0.5581,-0.5586,-0.5589,-0.5602,-0.5629,-0.5648,-0.5672,-0.5737,-0.5739,-0.5767,-0.5777,-0.5786,-0.5794,-0.5829,-0.5842,-0.5702,-0.5702,-0.5702,0,0,-0.5463,-0.5466,-0.545,-0.5509,-0.5522,-0.5526,-0.5559,-0.554,-0.5561,-0.5555,-0.5537,-0.554,-0.5593,-0.5597,-0.5563,-0.5658,-0.5617,-0.5624,-0.5654,-0.5667,-0.5677,-0.5676,-0.5517,0,0,0,0,0,-0.541,-0.5465,-0.5451,-0.5459,-0.5497,-0.5534,-0.5539,-0.5525,-0.5497,-0.5523,-0.5522,-0.5498,-0.5575,-0.5544,-0.5553,-0.5592,-0.5668,-0.5674,-0.568,-0.5733,-0.5746,-0.5757,0,0,0,0,0,0,-0.5413,-0.5423,-0.5449,-0.5456,-0.5465,-0.5532,-0.5481,-0.5478,-0.5494,-0.5488,-0.5499,-0.5498,-0.5487,-0.5539,-0.5547,-0.5584,-0.5514,-0.567,-0.5675,-0.568,-0.5738,-0.5748,-0.5758,0,0,0,0,0,-0.5415,-0.5424,-0.5488,-0.5455,-0.5463,-0.5458,-0.5478,-0.5476,-0.5488,-0.5487,-0.5485,-0.5476,-0.5489,-0.5494,-0.5544,-0.5581,-0.5509,-0.5512,-0.5674,-0.5678,-0.5681,-0.5743,0,0,0,0,0,0,-0.5417,-0.5422,-0.5489,-0.5491,-0.5434,-0.5454,-0.5456,-0.5474,-0.5485,-0.5484,-0.5463,-0.5459,-0.549,-0.5495,-0.5499,-0.558,-0.5504,-0.5507,-0.5509,-0.5677,-0.568,-0.5683,0,0,0,0,0,0,-0.5417,-0.5424,-0.549,-0.5463,-0.5461,-0.545,-0.5452,-0.5492,-0.5485,-0.546,-0.5457,-0.5461,-0.5483,-0.5495,-0.5498,-0.5561,-0.55,-0.5503,-0.5505,-0.5507,-0.5679,-0.5682,0,0,0,0,0,0,-0.542,-0.5425,-0.5462,-0.5461,-0.546,-0.5478,-0.5485,-0.5524,-0.5462,-0.5461,-0.5456,-0.5454,-0.5485,-0.5488,-0.5498,-0.5559,-0.556,-0.55,-0.5502,-0.5504,-0.5505,0,0,0,0,0,0,0,-0.5422,-0.5389,-0.5479,-0.546,-0.5458,-0.5506,-0.5507,-0.5507,-0.5462,-0.5459,-0.5457,-0.5455,-0.5483,-0.5487,-0.549,-0.5558,0,0,-0.55,-0.5502,0,0,0,0,0,0,0,0,-0.5387,-0.5389,-0.5479,-0.5479,-0.548,-0.5506,-0.5507,-0.5507,-0.5461,-0.5459,-0.5457,-0.5456,-0.5484,-0.5487,-0.549,0,0,0,0,0,0,0,0,0,0,0,0,0,0,0,-0.5479,-0.5479,0,-0.5506,-0.5507,-0.5507,-0.5461,-0.5459,-0.5458,-0.5456,-0.5485,-0.5487,-0.5489,0,0,0,0,0,0,0,0,0,0,0,0,0,0,0,0,0,0,0,0,0,0,0,0,0,0,0,0,0,0,0,0,0,0,0,0,0,0,0,0,0,0,0,0,0,0,0,0,0,0,0,0,0,0,0,0,0,0,0,0,0,0,0,0,0,0,0,0,0]}],[{"header":{"parameterUnit":"kt","parameterCategory":2,"dx":1,"dy":1,"la1":30.253999710083008,"la2":30.299108505249023,"lo1":-89.0895004272461,"lo2":-89.04439544677734,"nx":28,"ny":28,"refTime":"2022-10-02T21:00:00:Z","depth":0,"parameterNumber":2,"parameterNumberName":"V-component_of_WINDS"},"data":[-8.1712,-8.1839,-8.185,-8.1999,-8.2032,-8.2135,-8.2174,-8.2225,-8.2267,-8.2387,-8.2457,-8.2476,-8.2518,-8.2601,-8.2675,-8.268,-8.2712,-8.2752,-8.2752,-8.2568,-8.2543,-8.2519,-8.2492,-8.2758,-8.2758,-8.2942,-8.2943,-8.2945,-8.1581,-8.1617,-8.1698,-8.1784,-8.1853,-8.1821,-8.1884,-8.1944,-8.2034,-8.2086,-8.2155,-8.2259,-8.2341,-8.2369,-8.2449,-8.2505,-8.2493,-8.2526,-8.2523,-8.253,-8.2333,-8.2304,-8.2535,-8.2535,-8.2535,-8.2535,-8.2535,-8.2535,-8.1346,-8.1422,-8.1479,-8.1567,-8.1611,-8.1667,-8.1739,-8.1762,-8.1839,-8.1925,-8.1917,-8.2018,-8.2068,-8.2165,-8.2197,-8.2275,-8.2238,-8.2275,-8.2285,-8.2295,-8.2307,-8.2046,-8.2287,-8.2287,-8.2286,-8.2285,-8.2285,0,-8.1177,-8.1181,-8.1258,-8.1339,-8.1403,-8.1465,-8.1522,-8.1567,-8.157,-8.1632,-8.1723,-8.1776,-8.1878,-8.1962,-8.2035,-8.2061,-8.203,-8.2026,-8.2053,-8.206,-8.2059,-8.2063,-8.1745,-8.2019,-8.2017,-8.2015,-8.2014,-8.2013,-8.0942,-8.1028,-8.109,-8.1143,-8.1177,-8.1261,-8.1313,-8.1309,-8.1363,-8.1431,-8.1495,-8.1579,-8.1646,-8.1786,-8.1805,-8.188,-8.1866,-8.197,-8.1876,-8.1881,-8.187,-8.1866,-8.1875,-8.1989,-8.1992,-8.1994,-8.1997,0,-8.081,-8.0823,-8.0957,-8.1008,-8.1024,-8.1112,-8.1155,-8.1227,-8.1239,-8.1339,-8.1362,-8.138,-8.1466,-8.1469,-8.1566,-8.1564,-8.1709,-8.1691,-8.1693,-8.169,-8.1786,-8.1778,-8.2091,-8.2133,-8.1854,-8.1857,-8.1859,0,-8.0615,-8.0726,-8.0739,-8.0816,-8.0939,-8.0932,-8.1053,-8.1075,-8.1118,-8.1197,-8.1164,-8.1238,-8.1229,-8.1303,-8.1301,-8.1418,-8.1435,-8.1441,-8.144,-8.1446,-8.1446,-8.1473,-8.1461,-8.1429,-8.1428,-8.1426,-8.1425,0,-8.0407,-8.0542,-8.0667,-8.0699,-8.0763,-8.0821,-8.0849,-8.0896,-8.0945,-8.1008,-8.1039,-8.1112,-8.1152,-8.1207,-8.1204,-8.1141,-8.1347,-8.1258,-8.1353,-8.1354,-8.1399,-8.1396,-8.1673,-8.1423,-8.1423,-8.1422,-8.1422,0,-8.0251,-8.0319,-8.0497,-8.055,-8.0585,-8.0665,-8.0739,-8.0808,-8.0859,-8.0864,-8.0912,-8.0889,-8.0991,-8.0904,-8.1043,-8.0962,-8.1003,-8.1017,-8.1024,-8.1034,-8.0937,-8.1095,-8.1357,-8.1385,-8.1043,-8.104,-8.1037,0,-8.0012,-8.0194,-8.019,-8.0357,-8.0442,-8.0401,-8.0489,-8.0535,-8.0549,-8.062,-8.0633,-8.0713,-8.0648,-8.0673,-8.0742,-8.0758,-8.0863,-8.0743,-8.0845,-8.0849,-8.0836,-8.1077,-8.1116,-8.1299,-8.0996,-8.1,-8.1003,0,-7.9827,-7.9904,-7.9934,-7.9971,-8.0032,-8.0101,-8.0202,-8.0281,-8.0329,-8.0383,-8.0467,-8.0577,-8.0534,-8.0575,-8.0562,-8.0634,-8.0792,-8.0576,-8.0577,-8.0617,-8.0975,-8.1013,-8.1043,-8.0767,-8.0772,-8.0776,-8.0971,0,-7.9593,-7.9684,-7.9765,-7.9845,-7.9899,-8.0002,-8.0007,-8.0062,-8.0046,-8.0058,-8.018,-8.0214,-8.0291,-8.0324,-8.0307,-8.047,-8.0443,-8.0394,-8.0309,-8.0466,-8.0531,-8.0557,-8.0214,-8.0211,-8.0209,-8.0207,0,0,-7.9361,-7.9492,-7.9482,-7.9581,-7.9626,-7.9579,-7.969,-7.9727,-7.9802,-7.9833,-7.9786,-7.9947,-7.9976,-8.0123,-8.0173,-8.0202,-8.0232,-8.0175,-8.0391,-8.0412,-8.0431,-8.05,-8.0527,-8.0203,-8.0203,-8.0202,-8.0201,0,-7.9277,-7.9313,-7.9423,-7.9462,-7.9519,-7.9526,-7.9552,-7.9599,-7.9611,-7.973,-7.9687,-7.976,-7.9886,-7.9924,-7.996,-8.0158,-8.0121,-8.018,-8.0288,-8.037,-8.0393,-8.0414,-8.0486,-8.0512,-8.0196,-8.0196,-8.0196,0,-7.9098,-7.9134,-7.9187,-7.9286,-7.9322,-7.9408,-7.9321,-7.9414,-7.9477,-7.9417,-7.9535,-7.9554,-7.9603,-7.974,-7.9802,-7.976,-8.0021,-7.9937,-7.995,-7.9957,-8.0036,-8.0064,-8.0089,-7.976,-7.9758,-7.9757,0,0,-7.9024,-7.9108,-7.9143,-7.9268,-7.9294,-7.9305,-7.9349,-7.9338,-7.9385,-7.9404,-7.9427,-7.9473,-7.9546,-7.9595,-7.9663,-7.9813,-7.9823,-7.9883,-7.9904,-7.992,-7.9936,-8.002,-8.0047,-7.9751,-7.9751,-7.9751,0,0,-7.8987,-7.9035,-7.9012,-7.9157,-7.9206,-7.9246,-7.9322,-7.9293,-7.9355,-7.9343,-7.9325,-7.9336,-7.9464,-7.9483,-7.9407,-7.9633,-7.9549,-7.9567,-7.9616,-7.9642,-7.9662,-7.9655,-7.932,0,0,0,0,0,-7.8904,-7.903,-7.9008,-7.9033,-7.9155,-7.9259,-7.9274,-7.9264,-7.9206,-7.9267,-7.9281,-7.9238,-7.9439,-7.9371,-7.9395,-7.9479,-7.9678,-7.9691,-7.9703,-7.9802,-7.9829,-7.9852,0,0,0,0,0,0,-7.8913,-7.8944,-7.9005,-7.9051,-7.9078,-7.9254,-7.9154,-7.9155,-7.92,-7.919,-7.9236,-7.9239,-7.923,-7.9358,-7.938,-7.946,-7.9313,-7.9683,-7.9694,-7.9704,-7.9811,-7.9833,-7.9853,0,0,0,0,0,-7.8921,-7.8946,-7.9144,-7.9049,-7.9073,-7.909,-7.915,-7.9149,-7.9183,-7.9206,-7.9207,-7.9172,-7.9233,-7.9249,-7.9371,-7.9451,-7.9298,-7.9306,-7.969,-7.9699,-7.9707,-7.9822,0,0,0,0,0,0,-7.8927,-7.8945,-7.9149,-7.9156,-7.9001,-7.908,-7.9092,-7.9144,-7.9195,-7.9198,-7.9139,-7.9131,-7.9236,-7.9248,-7.9262,-7.9449,-7.9286,-7.9294,-7.9299,-7.9697,-7.9704,-7.971,0,0,0,0,0,0,-7.8932,-7.8951,-7.9152,-7.9092,-7.9092,-7.9071,-7.9081,-7.9181,-7.9196,-7.9126,-7.9121,-7.9135,-7.9215,-7.9249,-7.9259,-7.9415,-7.9277,-7.9285,-7.929,-7.9294,-7.9702,-7.9708,0,0,0,0,0,0,-7.894,-7.8956,-7.909,-7.909,-7.9089,-7.9163,-7.9158,-7.9282,-7.9148,-7.9124,-7.9136,-7.913,-7.9216,-7.9226,-7.9257,-7.9409,-7.9413,-7.9277,-7.9283,-7.9286,-7.9289,0,0,0,0,0,0,0,-7.8946,-7.8837,-7.911,-7.9088,-7.9087,-7.9218,-7.922,-7.9221,-7.9147,-7.9142,-7.9137,-7.9132,-7.9233,-7.9241,-7.925,-7.9404,0,0,-7.9276,-7.928,0,0,0,0,0,0,0,0,-7.883,-7.8836,-7.911,-7.9111,-7.9113,-7.9218,-7.922,-7.9221,-7.9146,-7.9142,-7.9138,-7.9134,-7.9235,-7.9242,-7.9249,0,0,0,0,0,0,0,0,0,0,0,0,0,0,0,-7.911,-7.9111,0,-7.9218,-7.922,-7.9221,-7.9145,-7.9142,-7.9139,-7.9136,-7.9237,-7.9243,-7.9248,0,0,0,0,0,0,0,0,0,0,0,0,0,0,0,0,0,0,0,0,0,0,0,0,0,0,0,0,0,0,0,0,0,0,0,0,0,0,0,0,0,0,0,0,0,0,0,0,0,0,0,0,0,0,0,0,0,0,0,0,0,0,0,0,0,0,0,0,0]}]]]